Overview Statistics Trail Chart Weather Telemetry Raw packets
 

This is the latest recevied weather packets stored in our database for station/object W5LND-10. If no packets are shown the sender has not sent any weather packets the latest 10 day(s).

<< 97 98 99 100 101 102 103 >>
Time Temp. Humidity Pressure Rain* Wind** Luminosity Snow
1787880047 25.56° C 76% 1010.2 hPa 0.76 mm - 25 W/m² -
1787879747 25.56° C 76% 1010.2 hPa 0.76 mm - 42 W/m² -
1787879447 25.56° C 75% 1010.2 hPa 0.76 mm - 46 W/m² -
1787879147 25.56° C 73% 1010.2 hPa 0.76 mm - 54 W/m² -
1787878847 25.56° C 72% 1010.1 hPa 0.76 mm - 72 W/m² -
1787878547 25.56° C 70% 1010.1 hPa 0.51 mm - 74 W/m² -
1787878247 26.11° C 70% 1010.4 hPa 0.51 mm - 51 W/m² -
1787877947 26.11° C 69% 1010.4 hPa 0.51 mm - 26 W/m² -
1787877647 26.67° C 68% 1010.4 hPa 0.51 mm - 18 W/m² -
1787877347 27.22° C 66% 1010.8 hPa 0.51 mm - 14 W/m² -
1787877047 28.33° C 67% 1010.2 hPa 0.51 mm - 11 W/m² -
1787876747 28.33° C 63% 1010.3 hPa 0.25 mm - 11 W/m² -
1787876447 28.89° C 61% 1010.3 hPa 0 mm - 12 W/m² -
1787876147 28.89° C 59% 1010.4 hPa 0 mm - 35 W/m² -
1787875847 28.89° C 56% 1010.1 hPa 0 mm - 70 W/m² -
1787875547 28.33° C 58% 1009.8 hPa 0 mm - 97 W/m² -
1787875247 28.33° C 58% 1009.8 hPa 0 mm - 120 W/m² -
1787874947 28.33° C 59% 1009.7 hPa 0 mm - 121 W/m² -
1787874647 27.78° C 60% 1009.8 hPa 0 mm - 162 W/m² -
1787874347 27.78° C 63% 1009.9 hPa 0 mm - 253 W/m² -
1787874047 27.78° C 65% 1009.8 hPa 0 mm - 193 W/m² -
1787873747 27.78° C 63% 1009.6 hPa 0 mm - 246 W/m² -
1787873447 27.78° C 65% 1009.8 hPa 0 mm - 163 W/m² -
1787873147 28.33° C 62% 1009.9 hPa 0 mm - 151 W/m² -
1787872847 28.33° C 57% 1009.8 hPa 0 mm - 151 W/m² -

* Rain latest hour (hover to see other rain measurements)
** Current wind speed in m/s (hover to see current wind gust speed)